Dewpoint
-1 -3 -4 -2 -1 -2 -2 -2 -2 -2 -2 -1 -0 0 0 -0 -1 -1 -1 -1 -2 -3 -4 -6 -8 -9 -7 -3 -11 -26 -20 -5 -7 -8 -14 -4 -4 -5 -8 -9 -8 -1 -1 -2 -2 -2 -3
-2 1 -0 -0 -0 -0 -1 -1 -4 -5 -4 -3 -2 -2 -1 -1 -1 -1 -2 -2 -2 -2 -4 -6 -7 -5 1 1 -22 -22 -22 -25 -22 -10 -9 -5 -8 -8 -7 -8 -6 -6 -5 -5 -4 -3 -2
-3 -4 -3 -3 -2 -2 -1 -3 -3 -2 -6 -5 -3 -4 -3 -2 -2 -2 -2 -3 -3 -3 -4 -6 -9 -2 1 -4 -27 -23 -21 -19 -11 -13 -10 -8 -9 -3 -4 -4 -5 -4 -4 -4 -3 -3 -3
-4 -4 -5 -3 -3 -4 -4 -3 -3 -4 -3 -3 -3 -3 -2 -2 -3 -2 -3 -3 -3 -4 -6 -9 -10 -3 0 -18 -24 -29 -28 -25 -22 -13 -15 -7 -2 -4 -7 -7 -4 -1 -2 1 -2 -3 -3
-22 -13 -7 -6 -7 -6 -6 -5 -4 -4 -3 -2 -2 -3 -3 -2 -2 -3 -3 -3 -3 -5 -9 -11 -4 -0 -1 -16 -15 -12 -5 -8 -18 -19 -18 -11 -3 -9 -6 -5 -2 -1 1 1 -0 -3 -3
-24 -18 -12 -11 -12 -12 -12 -6 -3 -2 -4 -4 -5 -5 -4 -4 -3 -3 -2 -2 -5 -1 2 1 0 -1 -10 -19 -4 -2 -3 -3 -7 -14 -11 -7 -9 -7 -4 -1 -0 0 2 1 0 -2 -2
-19 -13 -6 -5 -6 -7 -4 -4 -5 -6 -5 -5 -3 -3 -4 -4 -4 -2 -3 -1 -6 1 2 2 1 -1 -6 -1 -3 -1 -1 -4 -6 -9 -8 -9 -7 -6 -5 -2 -3 -2 -1 0 -2 -3 -3
-12 -11 -9 -7 -3 -2 -1 -3 -6 -6 -6 -7 -7 -6 -6 -5 -4 -2 -2 -0 -4 -0 -0 -1 -3 -2 -1 -1 2 -6 -6 -3 -5 -5 -9 -8 -6 -9 -8 -4 -2 -2 -1 -0 -3 -4 -3
-9 -2 -2 -2 -2 -3 -7 -9 -10 -9 -8 -7 -5 -5 -4 -4 -3 -2 -1 -2 -4 -1 1 -1 -2 -1 -3 -3 0 -4 -7 -4 -4 -4 -6 -5 -6 -9 -8 -5 -4 -4 -2 -4 -3 -8 -10
-2 -2 -2 -2 -3 -8 -10 -9 -9 -6 -6 -6 -6 -5 -5 -3 -3 -2 -3 -2 -2 -0 0 -1 -2 -3 -3 -4 -1 -6 -6 -6 -7 -2 -2 -4 -6 -7 -8 -7 -6 -4 -8 -7 -7 -9 -8
-2 -2 -2 -3 -3 -4 -8 -9 -8 -6 -5 -6 -7 -7 -6 -4 -2 -2 -3 -3 -2 -0 1 -11 -4 -5 -4 -5 -6 -4 -5 -6 -6 -6 -4 -1 -1 -4 -4 -8 -9 -8 -9 -8 -9 -8 -9
-3 -3 -4 -3 -4 -6 -8 -8 -7 -6 -6 -6 -6 -6 -6 -5 -2 -2 -3 -3 -2 2 -1 -3 -5 -4 -3 -4 -5 -6 -7 -8 -9 -9 -8 -6 -8 -5 -4 -6 -9 -7 -6 -6 -5 -5 -0
-6 -5 -4 -4 -6 -8 -8 -7 -8 -8 -8 -7 -8 -7 -6 -4 -1 -1 -2 -2 1 0 -7 -2 -4 -4 -3 -1 -4 -4 -6 -5 -6 -7 -7 -9 -10 -8 -8 -7 -7 -6 -3 1 4 4 2
-6 -7 -7 -5 -5 -5 -8 -9 -9 -9 -9 -7 -6 -6 -7 -7 -3 -3 -3 -0 0 -1 -3 -6 -4 -0 1 -0 0 0 -3 -3 -5 -7 -5 -4 -6 -9 -8 -7 -6 -4 -3 2 4 4 2
-3 -3 -4 -5 -7 -8 -9 -8 -6 -5 -9 -5 -5 -6 -6 -4 -4 -3 -3 -1 0 1 -4 -4 -2 -0 -0 -1 1 1 2 5 3 2 -3 -4 -5 -8 -9 -9 -8 -4 -2 -4 -1 -0 3
-4 -6 -6 -9 -10 -7 -8 -10 -8 -5 -7 -5 -5 -5 -5 -4 -3 -2 -5 -2 -1 -2 -5 -3 -0 -1 1 2 2 2 4 3 3 2 2 -4 -3 -4 -3 -9 -9 -7 -5 -0 1 4 3
-3 -9 -8 -5 -6 -10 -8 -8 -7 -5 -6 -5 -4 -4 -3 -4 -2 -5 -7 -3 -4 -6 -5 -3 -2 -1 1 0 1 3 5 3 1 2 2 2 -0 -2 -5 -4 -5 -5 -4 -3 -2 1 2
-6 -4 -4 -6 -8 -7 -8 -7 -7 -5 -5 -4 -3 -5 -4 -2 -3 -4 -5 -5 -5 -4 -7 -4 -3 -1 1 1 1 2 2 2 0 0 4 3 3 3 -1 -2 1 -5 -2 -3 1 1 3
-4 -4 -5 -7 -8 -6 -6 -7 -6 -5 -5 -3 -3 -4 -4 -3 -4 -2 -6 -2 -3 -3 -3 -3 -3 -3 -1 1 -1 1 2 0 0 2 3 3 4 5 2 2 -0 2 2 0 1 -0 2
-4 -6 -4 -8 -5 -4 -4 -4 -5 -4 -5 -3 -3 -4 -5 -2 -3 -1 -1 -2 -2 -4 -3 -3 -3 -4 -4 -1 -0 -1 1 1 2 2 3 2 3 3 4 3 1 2 2 2 1 2 1
-4 -6 -5 -8 -7 -4 -3 -2 -3 -4 -4 -5 -3 -5 -4 -4 -1 -2 -1 -2 -1 -2 -4 -3 -3 -1 0 0 -1 1 1 1 1 1 3 3 4 3 3 4 3 1 3 1 1 -1 1
-4 -5 -6 -8 -5 -3 -3 -2 -1 -2 -3 -4 -4 -4 -3 -3 -4 -4 -3 -3 -1 -3 -2 -1 -2 -2 -0 1 -1 1 -1 1 3 2 3 3 4 4 3 3 1 1 2 2 2 2 1
-4 -4 -5 -7 -4 -3 -3 -2 -1 -1 -2 -3 -4 -4 -3 -6 -4 -4 -3 -3 -2 -4 -5 -2 -4 -2 -1 -0 -2 -2 -2 -2 -0 1 2 3 3 3 2 2 1 2 -0 1 5 5 5
-4 -4 -5 -7 -4 -3 -3 -2 -1 -1 -1 -2 -3 -4 -4 -5 -4 -4 -6 -5 -5 -5 -4 -5 -4 -2 -3 -1 -1 -1 0 1 1 1 1 3 1 2 3 1 0 4 4 3 5 4 5
-4 -5 -5 -6 -4 -4 -3 -3 -2 -2 -1 -1 -2 -4 -3 -6 -5 -6 -5 -5 -5 -6 -5 -4 -4 -4 -1 1 2 2 -0 -0 0 1 2 2 1 2 3 3 -1 4 4 5 5 6 3
-6 -5 -5 -6 -3 -4 -4 -3 -2 -2 -1 -1 -1 -2 -3 -3 -4 -6 -6 -6 -4 -3 -3 -4 -4 -3 1 1 1 2 1 0 0 1 -0 1 0 1 2 3 2 1 4 3 4 6 3
-5 -5 -5 -6 -5 -4 -4 -3 -3 -1 -1 -1 -2 -1 -2 -2 -5 -5 -4 -4 -5 -4 -2 -3 -1 -2 0 0 2 2 1 -2 -0 1 3 2 2 3 2 3 1 1 3 3 4 3 2
-5 -5 -5 -7 -6 -3 -4 -3 -1 -1 -1 -1 -2 -2 -2 -2 -4 -4 -4 -5 -4 -3 -3 -4 -4 -0 0 1 1 1 1 -0 1 2 1 2 2 3 2 3 2 1 2 1 1 1 2
-6 -5 -6 -8 -5 -5 -4 -3 -2 -2 -1 -0 -1 -2 -1 -2 -2 -3 -3 -4 -5 -5 -4 -4 -2 -0 -1 2 2 1 1 -0 1 2 2 4 3 3 1 1 1 0 1 1 0 0 -0
Wind_Speed
8 9 9 11 12 14 13 16 19 20 20 20 21 22 23 25 28 30 31 31 32 32 31 31 28 25 25 10 24 25 17 13 8 4 18 17 16 12 6 6 9 6 4 9 20 23 17
8 8 10 11 13 15 17 18 19 20 22 21 22 23 25 26 27 30 31 33 34 34 33 33 30 21 18 14 23 19 14 24 26 17 15 19 8 17 7 7 8 3 14 21 20 23 15
8 10 11 12 11 13 16 21 21 22 20 20 19 22 23 26 29 31 33 35 36 38 35 32 30 20 23 44 25 21 15 17 16 18 18 18 22 9 3 2 12 10 10 8 7 7 7
9 11 12 13 13 14 15 17 19 21 21 22 22 23 24 25 27 28 32 36 37 38 36 32 26 17 20 26 32 34 27 33 30 23 17 19 12 12 6 8 5 3 3 3 3 10 7
10 11 11 11 12 13 15 16 18 19 20 21 22 24 27 29 31 32 30 34 38 40 32 25 17 12 19 18 18 9 11 23 25 29 25 16 20 10 5 6 3 3 4 5 2 7 5
9 9 9 10 9 10 12 14 16 18 21 22 24 25 26 28 30 32 30 32 37 19 10 3 8 5 20 16 7 9 10 7 7 16 17 15 9 4 4 5 12 7 4 4 4 2 3
8 7 9 11 11 12 13 14 16 18 20 23 24 26 27 27 28 28 31 32 14 6 6 9 8 14 14 11 10 6 4 2 4 12 8 8 5 11 8 9 5 2 5 5 1 3 3
8 9 10 11 12 13 13 14 15 17 19 22 22 25 28 29 30 27 28 22 23 13 17 22 30 36 44 34 17 17 9 6 7 6 6 3 18 7 8 7 6 6 6 5 4 6 5
9 10 11 12 12 12 13 14 16 17 18 20 21 23 26 27 29 28 21 21 19 22 9 17 26 23 33 23 24 37 20 5 4 7 10 7 4 11 12 7 9 6 9 3 8 4 3
9 9 9 12 12 13 14 15 17 18 18 20 21 23 23 25 19 16 18 10 25 24 5 6 6 7 12 12 9 26 22 18 5 10 6 7 7 5 7 8 7 10 8 9 6 2 3
10 9 10 11 12 13 15 16 17 17 19 20 21 23 22 21 19 26 18 23 30 19 5 1 3 4 9 10 9 5 19 16 9 7 6 6 3 8 10 6 8 5 8 8 6 5 1
9 10 10 9 13 13 14 15 16 16 18 19 20 24 19 20 20 13 17 29 21 2 5 8 3 0 3 6 3 6 5 3 5 2 0 5 1 3 7 5 8 5 3 3 2 3 3
14 8 8 9 12 14 15 16 17 17 18 21 23 21 16 19 20 21 21 18 6 3 9 9 6 7 3 5 1 3 5 5 5 5 6 0 10 2 3 3 2 3 5 1 1 1 5
7 9 7 8 12 14 16 15 16 16 16 18 20 19 16 19 17 16 17 3 3 7 6 8 7 9 5 10 5 6 6 3 3 1 4 6 2 10 7 12 8 7 7 4 5 4 3
7 11 11 12 14 15 12 10 13 17 13 17 19 17 17 12 13 9 3 2 5 7 9 9 9 7 8 6 4 7 6 8 8 11 3 3 3 2 3 5 12 5 5 7 2 1 1
11 11 11 12 12 8 10 9 12 13 12 16 18 18 10 16 3 3 3 4 5 5 9 6 7 7 8 10 8 8 8 8 9 8 5 3 1 3 2 4 4 6 5 3 1 3 5
12 9 6 9 10 9 9 9 10 12 12 13 13 8 11 5 5 3 2 3 5 7 6 4 5 4 4 7 6 5 8 5 11 12 8 6 2 6 5 2 2 2 3 4 4 5 3
7 6 9 11 10 7 8 9 9 11 11 11 7 3 2 3 3 1 2 3 9 5 9 3 2 2 3 5 4 5 5 5 11 11 6 2 1 2 6 3 3 3 2 6 3 3 2
12 8 11 11 8 7 8 9 8 9 8 5 6 6 2 3 0 1 5 4 4 4 5 5 4 2 1 3 4 3 2 1 8 6 4 5 2 1 4 3 3 4 2 1 2 3 5
13 10 13 11 10 10 10 11 9 8 7 4 3 3 4 1 3 4 3 4 4 9 4 4 4 5 4 2 4 4 3 2 10 7 12 1 1 2 4 3 5 4 3 2 1 2 3
14 15 15 13 12 9 11 12 10 9 9 5 1 3 2 2 1 3 4 3 5 3 4 8 4 6 3 4 5 3 3 4 5 6 8 2 1 2 4 5 10 5 3 2 1 2 4
16 18 14 14 12 10 11 10 9 9 12 11 4 3 1 4 6 4 3 2 5 5 3 2 3 9 5 4 4 5 6 2 3 6 3 4 3 2 3 4 10 7 8 4 8 7 10
16 15 15 14 12 12 11 9 8 10 17 12 12 8 2 4 3 1 3 3 4 5 4 4 7 7 6 5 11 21 17 11 6 2 3 2 2 2 1 2 7 5 5 2 4 3 2
17 15 15 15 13 14 13 10 9 11 17 21 16 11 5 4 3 3 4 3 5 6 5 13 16 3 4 21 17 15 15 13 8 12 10 5 3 1 3 4 2 4 4 8 10 5 6
18 17 18 17 13 16 15 13 11 12 15 19 23 16 8 3 6 7 10 7 10 12 7 12 20 9 19 5 4 4 1 2 5 10 7 12 2 2 1 1 5 2 2 1 3 0 4
18 19 20 19 14 18 17 15 13 15 14 19 25 27 10 1 5 16 4 7 3 3 5 5 9 13 5 1 2 2 2 3 1 2 7 6 4 3 1 1 3 2 1 8 2 2 0
20 20 20 20 16 20 19 17 15 14 16 20 23 24 22 6 10 7 3 3 3 2 3 4 8 7 6 1 2 2 2 2 2 2 1 2 1 6 2 1 6 3 7 5 2 2 5
21 21 21 22 19 19 20 19 14 16 17 23 25 22 24 9 18 9 14 17 7 3 1 8 8 2 3 2 1 2 1 1 2 1 3 3 3 3 3 3 6 11 5 1 2 12 13
22 23 23 21 20 22 20 17 16 15 15 18 23 21 17 20 7 7 15 26 24 22 19 7 3 2 1 3 1 2 2 3 2 1 2 1 2 2 4 2 6 11 9 11 10 14 12
Wind_Direction
327 329 330 331 330 326 319 316 319 317 309 305 312 313 316 315 313 314 316 317 317 318 318 316 313 313 313 284 254 263 269 259 266 231 206 192 186 193 178 192 217 232 227 240 245 253 246
325 335 338 340 339 335 334 331 326 325 317 314 300 306 313 312 313 314 315 316 314 311 313 314 309 309 301 265 287 282 269 242 254 244 226 210 210 218 221 209 190 230 231 246 246 255 254
312 320 319 313 311 317 319 328 335 333 324 320 314 309 307 307 311 307 310 311 310 308 306 307 301 297 271 253 269 273 268 248 235 221 228 225 220 189 210 275 262 261 261 267 223 222 236
334 334 328 323 326 322 323 329 337 337 333 329 323 321 316 312 310 310 311 309 306 305 304 295 283 277 258 280 282 270 261 251 246 221 228 219 222 228 208 273 315 253 228 214 237 185 224
329 324 329 327 322 324 326 328 327 326 327 330 329 323 320 318 315 313 311 305 308 310 292 277 255 233 272 278 270 289 259 255 242 228 240 228 226 217 182 159 303 257 240 211 280 196 185
320 313 320 318 337 335 328 331 323 318 316 315 314 313 313 313 314 315 312 306 311 298 303 242 207 230 257 254 281 295 306 255 204 201 193 207 203 185 174 154 215 212 217 237 213 299 237
308 308 330 341 336 332 333 332 323 318 315 316 317 318 315 311 314 312 308 320 339 289 272 249 239 241 278 288 288 188 62 180 171 162 164 186 189 213 192 203 211 200 225 220 180 231 347
313 325 332 336 338 339 337 330 330 327 328 329 328 321 316 314 308 309 312 302 294 318 292 279 262 259 264 262 295 257 286 201 175 174 143 144 234 211 196 210 211 205 233 244 265 244 264
320 326 337 336 336 333 334 333 328 327 328 328 327 329 327 321 308 315 304 290 300 301 268 284 253 249 249 240 237 257 246 230 198 175 187 200 207 193 185 192 206 194 213 170 245 324 293
321 330 331 327 331 332 325 326 330 332 333 332 329 329 328 321 315 321 320 315 291 303 273 266 218 250 202 195 240 244 228 202 211 198 163 232 234 146 182 217 175 228 179 203 229 139 250
313 322 324 328 326 325 324 327 328 331 332 329 327 327 318 322 300 311 307 313 315 294 285 180 142 148 173 180 306 209 200 203 180 178 159 222 198 202 212 192 171 216 179 191 207 187 134
307 307 319 330 328 325 327 330 331 332 331 327 323 323 323 319 303 323 322 323 316 202 251 348 103 63 176 225 280 122 144 188 182 166 133 212 12 147 183 184 168 175 150 155 80 125 259
300 329 329 325 319 325 325 327 326 325 323 322 321 320 312 316 290 313 318 326 268 220 338 344 335 334 289 317 45 183 151 168 142 133 232 44 245 236 143 99 112 157 95 198 233 198 236
339 338 307 319 320 321 323 324 330 328 316 320 327 323 316 317 316 309 317 270 282 31 8 330 326 335 53 10 351 334 120 148 207 135 144 178 232 170 197 197 186 185 164 172 201 195 240
314 309 311 310 317 319 328 326 334 337 328 328 330 334 342 359 322 281 357 304 307 29 333 319 314 29 12 356 6 10 46 15 37 14 306 135 277 206 193 175 171 193 182 188 261 206 322
292 295 299 311 314 326 338 321 328 337 335 337 335 338 3 329 309 328 87 267 350 353 326 334 13 12 14 3 15 15 22 33 359 3 335 299 0 259 65 114 218 189 173 100 63 208 242
287 296 301 318 323 311 320 323 329 331 333 341 336 333 356 19 119 356 139 288 289 317 356 331 326 326 6 15 350 0 30 58 8 353 346 352 106 295 24 11 131 104 225 202 168 161 239
285 292 299 301 293 308 317 318 323 326 327 337 341 347 338 203 45 135 300 283 324 303 319 310 297 290 7 356 3 18 15 17 356 337 344 10 12 256 236 255 184 163 212 174 169 208 221
288 280 294 292 276 295 305 309 313 314 326 335 325 297 7 225 317 270 287 270 267 313 318 332 327 5 342 338 347 0 349 45 13 348 6 347 355 45 328 16 13 108 108 19 119 94 214
276 275 288 266 269 287 293 292 286 284 292 282 315 323 322 307 293 317 327 329 320 316 279 294 290 335 328 248 236 310 307 7 350 345 334 329 0 302 177 223 319 301 141 85 121 149 172
267 263 275 259 263 279 294 291 281 257 252 228 214 247 247 297 135 297 315 302 298 318 311 353 21 33 20 313 328 220 309 350 322 330 2 302 225 270 245 351 311 234 278 58 146 285 189
265 267 266 249 252 274 283 281 271 233 234 218 215 216 219 282 290 282 274 275 319 344 309 24 18 334 317 264 229 285 321 76 302 350 324 302 7 294 297 90 289 284 207 196 272 215 262
263 263 262 243 246 264 270 276 266 239 221 209 216 232 282 289 312 53 249 270 321 0 295 273 325 319 295 275 274 267 263 260 214 270 318 265 244 264 304 80 313 268 223 170 107 42 250
259 266 260 234 250 260 264 263 261 243 244 240 219 196 199 261 222 218 264 315 310 312 279 293 303 266 286 322 313 285 257 249 219 240 216 277 347 349 303 22 215 273 22 132 99 58 27
256 255 260 233 252 251 254 259 258 253 253 248 226 206 181 244 224 253 255 267 288 294 275 269 285 267 312 330 321 304 280 322 259 235 219 206 175 299 334 165 273 174 334 106 155 45 354
250 253 262 233 255 249 251 256 260 256 244 239 249 226 192 198 231 247 264 255 248 267 307 265 305 324 324 68 334 294 310 303 334 165 17 142 183 155 134 39 270 239 211 7 195 180 152
249 251 259 234 252 247 248 255 259 255 245 237 238 243 214 221 241 237 187 212 215 259 270 313 342 331 6 37 270 263 281 291 311 300 153 101 146 198 148 254 285 330 314 342 143 204 72
246 251 262 236 244 242 244 248 258 256 251 249 226 233 224 219 244 236 240 234 236 225 202 323 338 355 320 294 270 297 233 261 295 196 184 188 148 176 168 188 257 2 334 214 142 74 80
244 253 264 232 235 239 248 253 256 263 260 239 212 226 231 231 254 267 268 246 244 252 259 250 266 299 236 297 256 315 305 335 337 315 37 10 325 285 201 185 64 30 49 74 106 88 69
Height
1510 1509 1507 1506 1505 1505 1504 1502 1502 1502 1500 1498 1496 1493 1491 1488 1487 1485 1482 1479 1477 1476 1473 1471 1468 1466 1461 1458 1450 1448 1446 1447 1447 1448 1448 1450 1451 1454 1455 1456 1457 1456 1453 1453 1453 1453 1454
1508 1507 1506 1504 1503 1502 1500 1499 1497 1497 1497 1495 1493 1492 1488 1485 1482 1481 1478 1475 1473 1470 1469 1467 1466 1464 1463 1451 1441 1442 1440 1441 1443 1445 1447 1447 1449 1451 1451 1450 1452 1448 1448 1447 1448 1449 1450
1506 1505 1503 1502 1502 1500 1497 1497 1495 1493 1494 1491 1489 1488 1485 1484 1479 1477 1475 1472 1468 1467 1464 1463 1462 1460 1454 1430 1437 1437 1437 1435 1437 1440 1443 1445 1446 1449 1448 1449 1446 1446 1447 1446 1444 1446 1447
1505 1502 1501 1499 1498 1498 1495 1494 1492 1492 1490 1488 1487 1486 1482 1480 1476 1473 1470 1467 1463 1459 1457 1456 1455 1457 1438 1431 1430 1427 1431 1428 1431 1434 1438 1442 1445 1445 1446 1445 1444 1444 1444 1450 1438 1439 1441
1501 1501 1498 1497 1496 1494 1495 1491 1491 1491 1488 1486 1484 1482 1480 1477 1474 1469 1465 1461 1458 1453 1446 1447 1449 1451 1433 1426 1422 1421 1422 1421 1423 1429 1435 1440 1442 1442 1444 1447 1451 1448 1453 1447 1440 1436 1436
1499 1499 1497 1496 1492 1493 1492 1490 1490 1488 1487 1483 1479 1478 1476 1473 1470 1466 1462 1457 1452 1447 1442 1441 1445 1452 1430 1423 1420 1420 1418 1419 1421 1422 1430 1437 1438 1439 1441 1446 1442 1447 1449 1445 1443 1436 1434
1498 1497 1496 1492 1489 1490 1489 1487 1486 1486 1483 1481 1476 1474 1472 1469 1466 1463 1459 1455 1453 1446 1442 1438 1437 1428 1422 1422 1415 1419 1417 1419 1420 1421 1424 1432 1436 1433 1437 1434 1434 1435 1440 1441 1438 1434 1437
1496 1494 1492 1489 1489 1487 1486 1485 1483 1482 1479 1476 1473 1471 1469 1467 1463 1461 1459 1458 1458 1455 1437 1428 1425 1422 1420 1424 1423 1413 1417 1418 1418 1421 1423 1433 1425 1425 1429 1432 1434 1436 1440 1441 1438 1434 1435
1494 1493 1490 1489 1487 1486 1484 1483 1482 1479 1475 1472 1471 1469 1466 1463 1461 1459 1456 1455 1454 1449 1438 1416 1412 1409 1410 1415 1415 1403 1414 1414 1415 1417 1420 1423 1417 1414 1424 1430 1433 1436 1438 1439 1439 1435 1433
1492 1489 1487 1487 1485 1484 1483 1481 1479 1475 1473 1471 1469 1467 1466 1462 1462 1458 1456 1453 1450 1448 1435 1413 1404 1399 1401 1405 1407 1397 1401 1409 1412 1413 1416 1418 1412 1416 1423 1426 1428 1433 1431 1433 1437 1441 1449
1488 1485 1485 1483 1483 1482 1480 1478 1476 1473 1471 1469 1468 1466 1464 1461 1460 1457 1455 1451 1445 1445 1440 1398 1399 1399 1397 1400 1398 1393 1395 1402 1405 1409 1412 1412 1410 1413 1415 1419 1423 1427 1424 1430 1433 1439 1438
1485 1482 1481 1480 1481 1480 1478 1476 1474 1472 1469 1468 1466 1465 1462 1460 1459 1457 1453 1449 1446 1430 1430 1400 1397 1398 1401 1397 1394 1394 1395 1401 1403 1407 1408 1410 1409 1408 1411 1412 1417 1418 1421 1427 1433 1440 1448
1481 1479 1479 1478 1479 1477 1475 1474 1472 1470 1468 1466 1464 1463 1461 1459 1458 1455 1454 1452 1447 1432 1412 1415 1407 1402 1399 1396 1391 1391 1396 1400 1408 1416 1415 1410 1408 1407 1406 1413 1416 1418 1427 1437 1443 1444 1433
1479 1477 1477 1476 1476 1474 1473 1472 1470 1467 1466 1464 1463 1460 1458 1457 1456 1454 1453 1453 1439 1424 1425 1417 1411 1402 1405 1402 1398 1396 1396 1400 1400 1401 1410 1410 1406 1404 1401 1405 1412 1418 1421 1430 1428 1432 1427
1476 1475 1475 1474 1473 1472 1471 1470 1468 1466 1465 1464 1460 1458 1456 1454 1454 1452 1454 1452 1440 1435 1433 1427 1414 1410 1413 1407 1405 1400 1402 1409 1412 1411 1408 1410 1405 1397 1398 1397 1403 1413 1420 1412 1420 1419 1426
1473 1471 1472 1471 1471 1470 1469 1468 1467 1466 1465 1464 1461 1458 1456 1454 1453 1454 1457 1449 1442 1443 1437 1430 1428 1422 1422 1417 1414 1410 1409 1417 1416 1415 1415 1403 1405 1393 1392 1395 1399 1401 1403 1417 1424 1425 1422
1469 1468 1469 1469 1469 1469 1467 1467 1467 1466 1465 1464 1462 1460 1458 1454 1456 1456 1468 1453 1447 1441 1439 1436 1432 1429 1426 1425 1421 1419 1417 1418 1418 1413 1410 1409 1404 1402 1396 1397 1400 1406 1408 1405 1408 1417 1414
1465 1466 1466 1466 1467 1466 1466 1466 1466 1466 1465 1464 1464 1464 1460 1459 1460 1459 1462 1452 1447 1442 1438 1436 1433 1431 1429 1428 1427 1422 1421 1420 1420 1419 1414 1413 1413 1408 1402 1394 1394 1396 1400 1403 1412 1410 1414
1463 1462 1463 1463 1465 1464 1464 1464 1465 1465 1465 1465 1465 1464 1460 1460 1465 1459 1453 1452 1448 1445 1441 1437 1435 1431 1431 1432 1433 1425 1425 1423 1423 1420 1418 1417 1415 1409 1400 1399 1397 1399 1400 1401 1402 1407 1407
1459 1458 1459 1460 1461 1461 1461 1462 1463 1463 1464 1466 1467 1466 1461 1460 1461 1459 1455 1451 1450 1445 1442 1438 1436 1433 1432 1431 1430 1429 1424 1421 1421 1420 1417 1418 1417 1417 1410 1416 1415 1408 1399 1400 1403 1408 1407
1454 1455 1455 1456 1457 1458 1458 1459 1460 1461 1462 1466 1467 1466 1464 1466 1459 1460 1458 1454 1450 1447 1441 1439 1437 1439 1439 1435 1431 1429 1426 1423 1421 1419 1419 1417 1421 1418 1412 1413 1411 1406 1405 1399 1403 1402 1407
1449 1449 1450 1452 1453 1454 1455 1455 1456 1458 1459 1463 1466 1465 1464 1462 1460 1458 1456 1453 1450 1448 1446 1441 1442 1440 1438 1437 1432 1431 1426 1427 1425 1419 1419 1420 1419 1418 1412 1405 1411 1406 1403 1402 1403 1401 1402
1445 1445 1445 1448 1449 1450 1451 1452 1453 1455 1456 1458 1461 1463 1464 1461 1459 1460 1457 1451 1450 1449 1445 1443 1442 1441 1436 1431 1427 1424 1423 1423 1422 1424 1423 1423 1418 1420 1411 1408 1411 1410 1398 1396 1402 1403 1401
1439 1440 1441 1443 1445 1446 1447 1448 1450 1451 1451 1454 1456 1460 1462 1461 1459 1456 1453 1452 1450 1450 1449 1442 1440 1439 1432 1429 1424 1419 1418 1418 1420 1419 1422 1423 1418 1422 1413 1411 1426 1406 1392 1395 1400 1403 1402
1434 1435 1437 1438 1440 1441 1443 1444 1446 1448 1448 1449 1451 1454 1457 1459 1454 1452 1451 1451 1448 1446 1445 1441 1436 1435 1431 1429 1428 1421 1416 1416 1410 1410 1414 1418 1419 1422 1419 1422 1412 1403 1399 1399 1399 1407 1406
1428 1430 1431 1432 1434 1436 1437 1439 1441 1443 1445 1444 1446 1448 1451 1453 1449 1448 1448 1448 1448 1445 1442 1438 1435 1433 1430 1430 1430 1422 1418 1412 1409 1409 1409 1412 1414 1418 1420 1416 1425 1401 1400 1400 1400 1403 1406
1421 1423 1425 1427 1429 1430 1432 1434 1436 1437 1439 1440 1441 1444 1446 1448 1445 1446 1446 1446 1445 1444 1443 1439 1437 1433 1432 1433 1429 1429 1422 1414 1413 1409 1414 1417 1417 1417 1419 1422 1411 1404 1403 1402 1408 1414 1409
1415 1417 1418 1420 1423 1425 1426 1428 1430 1432 1433 1434 1435 1439 1443 1443 1440 1441 1441 1443 1444 1443 1444 1440 1441 1438 1435 1433 1431 1427 1428 1420 1418 1412 1418 1415 1416 1419 1420 1421 1420 1407 1404 1406 1411 1410 1411
1409 1411 1412 1414 1417 1419 1421 1423 1425 1426 1427 1429 1430 1435 1439 1440 1437 1436 1436 1439 1440 1440 1443 1442 1440 1439 1437 1433 1431 1429 1426 1424 1420 1419 1416 1413 1416 1415 1410 1409 1413 1412 1412 1411 1411 1411 1414